Location: Coche
(10.4506°N, 66.9257°W)
Time: 19:03:17
(UTC+00:00)

Daily predictions for brighter satellites

Satellite Brightness Start Highest point End
(mag) Time Altitude Azimuth Time Altitude Azimuth Time Altitude Azimuth
Ariane H10+ 4.3 22:13:10 10° SW 22:15:42 32° SSE 22:22:37 10° E
Cosmos 2154 Rocket 4.1 22:16:37 10° N 22:22:57 86° E 22:29:19 10° S
MOS 1 Rocket 4.2 22:19:32 10° NNE 22:24:30 37° E 22:29:20 10° SSE
SKYMED 2 4.0 22:22:58 10° N 22:27:16 69° WNW 22:31:34 10° SSW
Cosmos 1862 3.9 22:23:33 10° NNW 22:27:30 63° W 22:31:26 10° S
Cosmos 2341 Rocket 4.3 22:24:46 10° NNE 22:30:46 45° E 22:36:48 10° SSE
ATLAS 5 CENTAUR R/B 2.9 22:24:18 10° NNW 22:31:02 85° WSW 22:38:20 10° SSE
Cosmos 1939 Rocket 3.6 22:27:53 10° SE 22:31:15 29° ENE 22:34:37 10° NNE
Cosmos 1538 Rocket 4.4 22:26:28 10° S 22:31:26 42° E 22:36:27 10° NNE
CZ-3A R/B 3.9 22:30:21 10° WNW 22:33:17 15° NNW 22:35:10 10° NNE
NOSS 3-2 (A) 4.2 22:31:11 10° SSE 22:35:29 25° ESE 22:39:33 11° ENE
CZ-2C R/B 4.3 22:33:35 10° ENE 22:35:59 13° E 22:38:23 10° SE
Cosmos 1689 Rocket 2.9 22:34:18 10° N 22:37:09 52° WNW 22:40:01 10° SSW
Cosmos 1633 Rocket 4.2 22:34:01 10° NNE 22:37:26 23° E 22:40:51 10° SE
Meteor 1-4 Rocket 2.7 22:35:39 10° S 22:39:17 53° E 22:42:52 10° NNE
Cosmos 2181 Rocket 4.3 22:34:48 10° S 22:41:14 77° W 22:47:39 10° N
Cosmos 1356 4.0 22:38:44 10° NNE 22:41:52 34° E 22:45:01 10° SSE
Cosmos 2298 Rocket 4.0 22:37:09 10° N 22:42:26 78° ENE 22:47:44 10° SSE
Cosmos 2150 Rocket 3.9 22:39:00 10° N 22:44:06 72° ENE 22:49:15 10° SSE
YAOGAN 1 4.0 22:43:48 10° ESE 22:46:37 17° ENE 22:48:40 13° NE
USA 238 DEB 4.3 22:43:23 10° S 22:49:07 34° ESE 22:53:38 15° NE
USA 238 4.3 22:43:29 10° S 22:49:13 33° ESE 22:53:42 15° NE
Cosmos 2278 Rocket 2.2 22:45:27 10° N 22:51:04 64° ENE 22:56:39 10° SSE
Centaur D-1AR AC-40 3.2 22:47:47 10° W 22:52:30 35° SSW 22:55:54 10° SE
GPS 2-15 Rocket1 4.5 22:48:59 10° WNW 22:53:05 26° N 22:55:50 16° NE
Okean-O 3.5 22:49:46 10° SE 22:53:28 27° ENE 22:57:10 10° NNE
Hubble Space Telescope 2.8 22:53:24 10° S 22:56:06 17° SSE 22:58:03 13° ESE
BREEZE-M DEB (TANK) 3.9 22:54:22 10° S 22:57:10 26° ESE 22:59:47 19° ENE
SL-8 Rocket 4.0 22:51:42 10° N 22:57:50 60° E 23:04:02 10° SSE
Cosmos 1603 3.8 22:52:25 10° S 22:57:55 52° ESE 23:02:49 13° NNE
Cosmos 1515 Rocket 3.4 22:56:47 10° S 23:01:06 84° E 23:05:26 10° N
Cosmos 1125 Rocket 3.4 22:56:05 10° N 23:01:15 71° ENE 23:06:27 10° SSE
CZ-4 R/B 4.4 23:01:03 10° SSE 23:05:10 63° ENE 23:09:16 10° N
Okean O Rocket 4.2 23:02:39 10° SSW 23:06:05 23° W 23:09:32 10° NW
Cosmos 1943 3.2 23:04:19 10° S 23:09:48 59° ESE 23:13:47 19° NNE
Cosmos 1470 Rocket 4.2 23:12:04 32° E 23:12:04 32° E 23:15:51 10° SSE
Milstar 3 4.2 23:04:41 10° W 23:12:13 38° SSW 23:18:20 10° SE
SL-24 R/B - RUBIN 2 4.3 23:10:55 10° N 23:16:02 39° ENE 23:18:30 23° ESE
H-2A R/B 2.7 23:12:09 10° SE 23:17:00 34° ENE 23:18:27 29° NE
SWIFT 4.1 23:16:30 10° SSW 23:19:34 19° SSE 23:20:34 18° SE
Helios 1A Rocket 2.8 23:16:56 10° SSE 23:20:57 64° ENE 23:24:56 10° N
Lacrosse 4 Rocket 3.8 23:28:16 10° SSE 23:28:24 11° SSE 23:28:24 11° SSE
ARIANE 44L R/B 4.1 23:32:24 10° SSW 23:33:06 13° S 23:33:06 13° S
Cosmos 923 Rocket 3.8 23:32:13 10° S 23:37:25 86° E 23:39:08 44° NNE
Cosmos 2218 Rocket 4.4 23:35:48 10° NNW 23:41:49 61° W 23:47:54 10° S
MAQSAT/ARIANE V 2.8 23:38:01 10° WSW 23:41:39 33° SSW 23:41:39 33° SSW
Intelsat 5-3 Rocket 4.0 23:42:29 10° WSW 23:43:35 20° WSW 23:43:35 20° WSW
CZ-4 R/B 2.7 23:48:27 10° SSW 23:52:01 37° W 23:55:30 11° NNW
CZ-2C R/B 3.8 23:48:20 10° S 23:53:43 53° WSW 23:58:48 10° NNW
Meteor 1-14 Rocket 4.2 23:51:17 36° N 23:53:53 80° E 23:59:51 10° S
